FENTRESS NALF, VA

9:23 AM EST on February 24, 2018 (GMT -0500)
Fentress Naval Air Landing Field

Weather History for KNFE - March, 2014

Change the Weather History Date:

Saturday, March 29, 2014

  Actual Average (KNTU) Record (KNTU)
Temperature  
Mean Temperature 68 °F -  
Max Temperature 75 °F 60 °F 84 °F (1998)
Min Temperature 62 °F 42 °F 27 °F (2011)
Cooling Degree Days 4    
Growing Degree Days 18 (Base 50)    
Moisture  
Dew Point 61 °F    
Average Humidity 79    
Maximum Humidity 87    
Minimum Humidity 62    
Precipitation  
Precipitation 0.34 in - - ()
Sea Level Pressure  
Sea Level Pressure 29.93 in    
Wind  
Wind Speed 10 mph (SSE)    
Max Wind Speed 24 mph    
Max Gust Speed 41 mph    
Visibility 8 miles    
Events Rain    
Averages and records for this station are not official NWS values.
T = Trace of Precipitation, MM = Missing Value Source: NWS Daily Summary

Daily Weather History Graph

Daily Weather History Graph

Search for Another Location

Airport or City:

Trip Planner

Search our weather history database for the weather conditions in past years. The results will help you decide how hot, cold, wet, or windy it might be!

Date:

Astronomy

Mar. 29, 2014 Rise Set
Actual Time 6:54 AM EDT 7:24 PM EDT
Civil Twilight 6:28 AM EDT 7:50 PM EDT
Nautical Twilight 5:58 AM EDT 8:20 PM EDT
Astronomical Twilight 5:27 AM EDT 8:52 PM EDT
Moon 6:00 AM EDT (3/29) 6:27 PM EDT (3/29)
Length of Visible Light 13h 21m
Length of Day
12h 29m
Waning Crescent, 2% of the Moon is Illuminated
Mar 29
Waning Crescent
Mar 30
New
Apr 7
First Quarter
Apr 15
Full
Apr 22
Last Quarter

Hourly Weather History & Observations

Time (EDT) Temp. Dew Point Humidity Pressure Visibility Wind Dir Wind Speed Gust Speed Precip Events Conditions
12:16 AM 64.9 °F 57.9 °F 78% 30.17 in 10.0 mi Variable 5.8 mph - N/A   Overcast
12:56 AM 64.9 °F 57.9 °F 78% 30.17 in 10.0 mi South 9.2 mph - N/A   Overcast
1:08 AM 66.0 °F 57.9 °F 75% 30.16 in 10.0 mi South 8.1 mph - N/A   Overcast
1:23 AM 64.9 °F 59.0 °F 81% 30.16 in 8.0 mi SSW 9.2 mph 18.4 mph 0.00 in Rain Light Rain
1:56 AM 64.0 °F 59.0 °F 84% 30.16 in 4.0 mi South 9.2 mph - 0.03 in Rain Light Rain
2:09 AM 64.0 °F 59.0 °F 84% 30.15 in 4.0 mi South 10.4 mph - 0.01 in Rain Rain
2:26 AM 64.0 °F 59.0 °F 84% 30.14 in 2.5 mi South 4.6 mph - 0.07 in Rain Heavy Rain
2:38 AM 64.0 °F 60.1 °F 87% 30.13 in 4.0 mi Variable 3.5 mph - 0.09 in Rain Light Rain
2:56 AM 64.0 °F 59.0 °F 84% 30.13 in 7.0 mi SSE 5.8 mph - 0.10 in Rain Light Rain
3:56 AM 63.0 °F 59.0 °F 87% 30.11 in 7.0 mi SSE 4.6 mph - 0.03 in Rain Light Rain
4:56 AM 63.0 °F 57.9 °F 84% 30.09 in 7.0 mi SSE 6.9 mph - 0.04 in Rain Light Rain
5:56 AM 63.0 °F 57.0 °F 81% 30.07 in 10.0 mi SSE 6.9 mph - 0.03 in Rain Light Rain
6:56 AM 63.0 °F 57.0 °F 81% 30.07 in 10.0 mi SSE 8.1 mph - 0.00 in Rain Light Rain
7:56 AM 62.1 °F 57.9 °F 86% 30.08 in 8.0 mi SSE 6.9 mph - 0.01 in Rain Light Rain
8:56 AM 63.0 °F 57.9 °F 84% 30.07 in 7.0 mi SSE 5.8 mph - 0.01 in Rain Light Rain
9:56 AM 64.0 °F 59.0 °F 84% 30.06 in 10.0 mi South 6.9 mph - 0.01 in   Overcast
10:56 AM 66.9 °F 61.0 °F 81% 30.03 in 10.0 mi SE 6.9 mph - N/A   Overcast
11:56 AM 68.0 °F 61.0 °F 78% 30.00 in 10.0 mi SE 8.1 mph - 0.00 in Rain Light Rain
12:42 PM 72.0 °F 62.1 °F 71% 29.96 in 10.0 mi SSE 10.4 mph - 0.00 in   Overcast
12:56 PM 72.0 °F 62.1 °F 71% 29.95 in 10.0 mi SE 6.9 mph - 0.00 in   Overcast
1:42 PM 75.0 °F 62.1 °F 64% 29.89 in 10.0 mi South 18.4 mph 25.3 mph N/A   Overcast
1:56 PM 75.0 °F 61.0 °F 62% 29.89 in 10.0 mi South 23.0 mph 29.9 mph N/A   Mostly Cloudy
2:18 PM 73.9 °F 63.0 °F 68% 29.86 in 10.0 mi South 15.0 mph 20.7 mph 0.00 in   Overcast
2:31 PM 71.1 °F 62.1 °F 73% 29.87 in 2.5 mi South 24.2 mph 41.4 mph 0.02 in Rain Rain
2:37 PM 69.1 °F 63.0 °F 81% 29.86 in 3.0 mi South 23.0 mph 39.1 mph 0.03 in Rain Light Rain
2:56 PM 69.1 °F 63.0 °F 81% 29.85 in 10.0 mi South 13.8 mph 23.0 mph 0.03 in   Overcast
3:24 PM 70.0 °F 63.0 °F 78% 29.83 in 8.0 mi South 17.3 mph 26.5 mph 0.00 in Rain Light Rain
3:42 PM 69.1 °F 62.1 °F 78% 29.83 in 7.0 mi South 17.3 mph 27.6 mph 0.02 in Rain Light Rain
3:56 PM 69.1 °F 63.0 °F 81% 29.82 in 8.0 mi SSE 12.7 mph - 0.03 in Rain Light Rain
4:56 PM 69.1 °F 62.1 °F 78% 29.78 in 10.0 mi South 16.1 mph 24.2 mph 0.02 in Rain Light Rain
5:09 PM 69.1 °F 62.1 °F 78% 29.76 in 10.0 mi SSE 15.0 mph - 0.00 in Rain Light Rain
5:56 PM 68.0 °F 61.0 °F 78% 29.76 in 10.0 mi South 19.6 mph 23.0 mph 0.00 in   Overcast
6:42 PM 66.9 °F 61.0 °F 81% 29.73 in 10.0 mi SSE 10.4 mph - 0.00 in Rain Light Rain
6:56 PM 68.0 °F 62.1 °F 81% 29.73 in 10.0 mi SSE 11.5 mph 21.9 mph 0.00 in   Overcast
7:10 PM 66.9 °F 61.0 °F 81% 29.71 in 10.0 mi SE 9.2 mph - N/A   Overcast
7:23 PM 66.9 °F 61.0 °F 81% 29.70 in 5.0 mi SSE 13.8 mph 19.6 mph 0.00 in Rain Light Rain
7:56 PM 68.0 °F 62.1 °F 81% 29.70 in 9.0 mi South 17.3 mph 20.7 mph 0.00 in   Overcast
8:56 PM 69.1 °F 63.0 °F 81% 29.68 in 10.0 mi South 15.0 mph 23.0 mph N/A   Overcast
9:56 PM 70.0 °F 64.0 °F 81% 29.67 in 10.0 mi South 16.1 mph 20.7 mph N/A   Overcast
10:56 PM 70.0 °F 64.0 °F 81% 29.63 in 10.0 mi South 13.8 mph - N/A   Overcast
11:56 PM 70.0 °F 64.0 °F 81% 29.59 in 10.0 mi South 12.7 mph - N/A   Overcast